• Join FlightAware (Why Join?)
  • Login
  • US Flag 
03:38AM EST


 

Airport Tracker/Info


-or-


 

Live Flight TrackerFlight Track Log ✈ N777NC ✈ 09-Jul-2013 ✈ KHSV - KATL

Flight Track Log - Related Links

Times and Time Zones

All times are in EDT time to prevent confusion due to time zone crossing. See the N777NC flight status page for this flight to view local times or setup timezone preferences in your user account.

Time Position Orientation Groundspeed Altitude Reporting Facility
EDT Latitude Longitude Course Direction KTS MPH feet Rate Location/Type
02:54PM 34.5172 -86.6267 109° East 273 314 6,800  Level Memphis Center
02:55PM 34.4897 -86.5061 105° East 301 346 10,200 1,817 Climbing Atlanta Center
02:56PM 34.4708 -86.3972 102° East 308 354 11,100 1,100 Climbing Atlanta Center
02:57PM 34.4869 -86.2686 108° East  Level FlightAware Approximate
02:57PM 34.4439 -86.2731 105° East 343 395 12,400  Level Atlanta Center
02:58PM 34.4641 -86.1848 108° East  Level FlightAware Approximate
02:58PM 34.4128 -86.1439 106° East 379 436 15,100  Level Atlanta Center
02:59PM 34.4453 -86.1003 109° East  Level FlightAware Approximate
02:59PM 34.3858 -86.0172 104° East 391 450 17,500  Level Atlanta Center
03:00PM 34.3503 -85.8881 108° East 396 456 19,100 1,750 Climbing Atlanta Center
03:01PM 34.3167 -85.7492 106° East 401 461 21,000 950 Climbing Atlanta Center
03:02PM 34.2933 -85.6228 103° East 390 449 21,000 -500 Level Atlanta Center
03:03PM 34.2658 -85.4942 104° East 395 455 20,000 -1,600 Descending Atlanta Center
03:04PM 34.2275 -85.3703 110° East 390 449 17,800 -2,100 Descending Atlanta Center
03:05PM 34.1953 -85.2569 109° East 372 428 15,800 -1,850 Descending Atlanta Center
03:06PM 34.1711 -85.1461 105° East 366 421 14,100 -900 Descending Atlanta Center
03:07PM 34.1178 -85.0500 124° Southeast 345 397 14,000 -450 Descending Atlanta Center
03:08PM 34.0683 -84.9817 131° Southeast 319 367 13,200 -1,000 Descending Atlanta Center
03:09PM 34.0042 -84.9108 138° Southeast 311 358 12,000 -600 Descending Atlanta Center
03:10PM 33.9483 -84.8400 134° Southeast 304 350 12,000  Level Atlanta Center
03:11PM 33.8903 -84.7644 133° Southeast 304 350 12,000  Level Atlanta Center
03:12PM 33.8406 -84.6992 133° Southeast 286 329 12,000  Level Atlanta Center
03:13PM 33.7867 -84.6386 137° Southeast 267 307 12,000  Level Atlanta Center
03:14PM 33.7367 -84.5783 135° Southeast 267 307 12,000 -700 Level Atlanta Center
03:15PM 33.7328 -84.4933 93° East 241 277 10,600 -1,457 Descending Atlanta Center
03:16PM 33.7500 -84.3833 79° East 226 260 8,600 -1,629 Descending Atlanta TRACON
03:17PM 33.7500 -84.3167 90° East 218 251 6,800 -1,600 Descending Atlanta TRACON
03:18PM 33.7500 -84.2333 90° East 218 251 5,400 -950 Descending Atlanta TRACON
03:19PM 33.7500 -84.1667 90° East 216 249 4,900 -200 Descending Atlanta TRACON
03:20PM 33.7500 -84.0833 90° East 214 246 5,000 50 Climbing Atlanta TRACON
03:21PM 33.7500 -84.0167 90° East 219 252 5,000 -50 Level Atlanta TRACON
03:22PM 33.7000 -83.9833 151° Southeast 227 261 4,900  Descending Atlanta TRACON
03:23PM 33.6500 -84.0167 209° Southwest 206 237 5,000 100 Climbing Atlanta TRACON
03:24PM 33.6500 -84.0833 270° West 193 222 5,100  Climbing Atlanta TRACON
03:25PM 33.6500 -84.1333 270° West 189 217 5,000 -450 Descending Atlanta TRACON
03:26PM 33.6500 -84.2000 270° West 189 217 4,200 -900 Descending Atlanta TRACON
03:27PM 33.6500 -84.2667 270° West 191 220 3,200 -1,000 Descending Atlanta TRACON
03:28PM 33.6500 -84.3333 270° West 180 207 2,200 -850 Descending Atlanta TRACON
03:29PM 33.6500 -84.3833 270° West 142 163 1,500 -700 Descending Atlanta TRACON
03:31PM 33.6333 -84.4167 North  Level FlightAware Approximate
03:38PM 33.6367 -84.4279 North  Level Estimated
03:39PM 33.6367 -84.4279 North  Level Estimated